• In Germany
  • List of Countries
  • For 7 days
  • Water Temperature
  • Satellite Maps
  • Weather Map
  • Weather Widgets
  • user-avatar
    Login

    Hourly Weather Malyy Kunaley

    Today, 24 April, Tuesday

    Time Temperature Precipitation Wind Pressure Humidity
    00:00 +10°C° 0 mm 2 mps 708 mmHg 39%
    01:00 +9°C° 0 mm 2 mps 708 mmHg 38%
    02:00 +9°C° 0 mm 2 mps 707 mmHg 39%
    03:00 +8°C° 0 mm 2 mps 707 mmHg 41%
    04:00 +8°C° 0 mm 2 mps 707 mmHg 42%
    05:00 +10°C° 0 mm 2 mps 707 mmHg 39%
    06:00 +13°C° 0 mm 2 mps 707 mmHg 36%
    07:00 +14°C° 0 mm 2 mps 706 mmHg 33%
    08:00 +17°C° 0 mm 3 mps 706 mmHg 28%
    09:00 +20°C° 0 mm 3 mps 706 mmHg 24%
    10:00 +22°C° 0 mm 4 mps 705 mmHg 19%
    11:00 +23°C° 0 mm 4 mps 705 mmHg 17%
    12:00 +26°C° 0 mm 5 mps 704 mmHg 15%
    13:00 +27°C° 0 mm 5 mps 703 mmHg 13%
    14:00 +27°C° 0 mm 5 mps 703 mmHg 13%
    15:00 +27°C° 0 mm 5 mps 702 mmHg 14%
    16:00 +27°C° 0 mm 5 mps 702 mmHg 14%
    17:00 +23°C° 0 mm 4 mps 701 mmHg 18%
    18:00 +21°C° 0 mm 3 mps 701 mmHg 22%
    19:00 +19°C° 0 mm 3 mps 700 mmHg 26%
    20:00 +18°C° 0 mm 2 mps 700 mmHg 28%
    21:00 +16°C° 0 mm 2 mps 701 mmHg 29%
    22:00 +15°C° 0 mm 2 mps 701 mmHg 31%
    23:00 +14°C° 0 mm 2 mps 701 mmHg 33%

    Tomorrow, 25 April, Wednesday

    Time Temperature Precipitation Wind Pressure Humidity
    00:00 +14°C° 0 mm 2 mps 701 mmHg 35%
    01:00 +13°C° 0 mm 2 mps 701 mmHg 37%
    02:00 +12°C° 0 mm 2 mps 702 mmHg 43%
    03:00 +10°C° 0 mm 2 mps 702 mmHg 50%
    04:00 +9°C° 0 mm 2 mps 703 mmHg 57%
    05:00 +10°C° 0 mm 3 mps 703 mmHg 58%
    06:00 +11°C° 0 mm 3 mps 704 mmHg 59%
    07:00 +12°C° 0 mm 4 mps 705 mmHg 60%
    08:00 +13°C° 0 mm 4 mps 705 mmHg 54%
    09:00 +14°C° 0 mm 4 mps 705 mmHg 49%
    10:00 +14°C° 0 mm 4 mps 706 mmHg 44%
    11:00 +17°C° 0 mm 4 mps 706 mmHg 40%
    12:00 +18°C° 0 mm 4 mps 706 mmHg 36%
    13:00 +19°C° 0 mm 4 mps 706 mmHg 32%
    14:00 +19°C° 0 mm 4 mps 705 mmHg 32%
    15:00 +19°C° 0 mm 4 mps 705 mmHg 32%
    16:00 +19°C° 0 mm 4 mps 705 mmHg 32%
    17:00 +17°C° 0 mm 3 mps 705 mmHg 37%
    18:00 +15°C° 0 mm 2 mps 705 mmHg 42%
    19:00 +13°C° 0 mm 1 mps 705 mmHg 47%
    20:00 +12°C° 0 mm 1 mps 705 mmHg 50%
    21:00 +11°C° 0 mm 1 mps 706 mmHg 53%
    22:00 +10°C° 0 mm 1 mps 706 mmHg 56%
    23:00 +10°C° 0 mm 1 mps 706 mmHg 57%

    Day after tomorrow, 26 April, Thursday

    Time Temperature Precipitation Wind Pressure Humidity
    00:00 +9°C° 0 mm 1 mps 706 mmHg 58%
    01:00 +9°C° 0 mm 1 mps 706 mmHg 59%
    02:00 +8°C° 0 mm 2 mps 706 mmHg 60%
    03:00 +8°C° 0 mm 2 mps 706 mmHg 60%
    04:00 +7°C° 0 mm 2 mps 706 mmHg 61%
    05:00 +9°C° 0 mm 2 mps 706 mmHg 55%
    06:00 +12°C° 0 mm 2 mps 707 mmHg 48%
    07:00 +14°C° 0 mm 2 mps 707 mmHg 42%
    08:00 +16°C° 0 mm 3 mps 707 mmHg 39%
    09:00 +18°C° 0 mm 3 mps 707 mmHg 35%
    10:00 +21°C° 0 mm 4 mps 707 mmHg 32%
    11:00 +22°C° 0 mm 3 mps 706 mmHg 29%
    12:00 +24°C° 0 mm 3 mps 706 mmHg 26%
    13:00 +25°C° 0 mm 3 mps 706 mmHg 24%
    14:00 +25°C° 0 mm 3 mps 705 mmHg 24%
    15:00 +25°C° 0 mm 2 mps 705 mmHg 24%
    16:00 +25°C° 0 mm 2 mps 705 mmHg 25%
    17:00 +23°C° 0 mm 2 mps 704 mmHg 30%
    18:00 +21°C° 0 mm 1 mps 704 mmHg 35%
    19:00 +17°C° 0 mm 0 mps 704 mmHg 40%
    20:00 +18°C° 0 mm 1 mps 703 mmHg 42%
    21:00 +16°C° 0 mm 1 mps 703 mmHg 44%
    22:00 +15°C° 0 mm 2 mps 703 mmHg 46%
    23:00 +14°C° 0 mm 2 mps 702 mmHg 47%

    27 April, Friday

    Time Temperature Precipitation Wind Pressure Humidity
    00:00 +13°C° 0 mm 2 mps 702 mmHg 48%
    01:00 +13°C° 0 mm 2 mps 702 mmHg 49%
    02:00 +12°C° 0 mm 2 mps 701 mmHg 51%
    03:00 +12°C° 0 mm 1 mps 701 mmHg 52%
    04:00 +11°C° 0 mm 1 mps 701 mmHg 53%
    05:00 +12°C° 0 mm 2 mps 702 mmHg 52%
    06:00 +14°C° 0 mm 2 mps 702 mmHg 52%
    07:00 +14°C° 0 mm 3 mps 702 mmHg 51%
    08:00 +16°C° 0 mm 3 mps 703 mmHg 50%
    09:00 +17°C° 0 mm 4 mps 703 mmHg 49%
    10:00 +19°C° 0 mm 4 mps 703 mmHg 48%
    11:00 +19°C° 0 mm 4 mps 703 mmHg 46%
    12:00 +20°C° 0 mm 4 mps 703 mmHg 44%
    13:00 +20°C° 0 mm 4 mps 702 mmHg 42%
    14:00 +20°C° 0 mm 5 mps 702 mmHg 43%
    15:00 +19°C° 0 mm 5 mps 702 mmHg 43%
    16:00 +17°C° 0 mm 5 mps 702 mmHg 44%
    17:00 +17°C° 0 mm 4 mps 702 mmHg 47%
    18:00 +14°C° 0 mm 3 mps 703 mmHg 51%
    19:00 +13°C° 0 mm 3 mps 703 mmHg 55%
    20:00 +13°C° 0.3 mm 2 mps 703 mmHg 62%
    21:00 +12°C° 0.3 mm 2 mps 703 mmHg 68%
    22:00 +10°C° 0.3 mm 2 mps 704 mmHg 75%
    23:00 +10°C° 0.1 mm 2 mps 704 mmHg 77%

    28 April, Saturday

    Time Temperature Precipitation Wind Pressure Humidity
    00:00 +9°C° 0.1 mm 2 mps 705 mmHg 78%
    01:00 +9°C° 0.1 mm 3 mps 705 mmHg 79%
    02:00 +8°C° 0.1 mm 3 mps 705 mmHg 79%
    03:00 +8°C° 0.1 mm 3 mps 706 mmHg 79%
    04:00 +7°C° 0.1 mm 3 mps 706 mmHg 79%
    05:00 +7°C° 0 mm 3 mps 706 mmHg 73%
    06:00 +8°C° 0 mm 3 mps 707 mmHg 67%
    07:00 +8°C° 0 mm 3 mps 707 mmHg 61%
    08:00 +9°C° 0 mm 3 mps 707 mmHg 54%
    09:00 +10°C° 0 mm 4 mps 707 mmHg 48%
    10:00 +11°C° 0 mm 4 mps 708 mmHg 41%
    11:00 +12°C° 0 mm 4 mps 707 mmHg 39%
    12:00 +12°C° 0 mm 4 mps 707 mmHg 37%
    13:00 +12°C° 0 mm 4 mps 707 mmHg 35%
    14:00 +12°C° 0 mm 4 mps 707 mmHg 34%
    15:00 +12°C° 0 mm 4 mps 707 mmHg 33%
    16:00 +12°C° 0 mm 4 mps 706 mmHg 32%
    17:00 +11°C° 0 mm 3 mps 707 mmHg 35%
    18:00 +10°C° 0 mm 3 mps 707 mmHg 38%
    19:00 +8°C° 0 mm 2 mps 707 mmHg 41%
    20:00 +8°C° 0 mm 2 mps 707 mmHg 45%
    21:00 +8°C° 0 mm 1 mps 708 mmHg 49%
    22:00 +7°C° 0 mm 1 mps 708 mmHg 53%
    23:00 +6°C° 0 mm 1 mps 708 mmHg 57%

    29 April, Sunday

    Time Temperature Precipitation Wind Pressure Humidity
    00:00 +5°C° 0 mm 1 mps 708 mmHg 60%
    01:00 +3°C° 0 mm 0 mps 708 mmHg 64%
    02:00 +3°C° 0 mm 0 mps 708 mmHg 67%
    03:00 +2°C° 0 mm 0 mps 708 mmHg 70%
    04:00 +2°C° 0 mm 0 mps 707 mmHg 74%
    05:00 +4°C° 0 mm 0 mps 707 mmHg 65%
    06:00 +6°C° 0 mm 0 mps 707 mmHg 57%
    07:00 +8°C° 0 mm 0 mps 708 mmHg 48%
    08:00 +11°C° 0 mm 1 mps 707 mmHg 41%
    09:00 +13°C° 0 mm 1 mps 707 mmHg 33%
    10:00 +14°C° 0 mm 1 mps 706 mmHg 26%
    11:00 +15°C° 0 mm 1 mps 706 mmHg 24%
    12:00 +15°C° 0 mm 2 mps 705 mmHg 22%
    13:00 +16°C° 0 mm 2 mps 704 mmHg 20%
    14:00 +16°C° 0 mm 2 mps 704 mmHg 20%
    15:00 +16°C° 0 mm 2 mps 703 mmHg 20%
    16:00 +15°C° 0 mm 2 mps 703 mmHg 19%
    17:00 +14°C° 0 mm 2 mps 703 mmHg 23%
    18:00 +12°C° 0 mm 2 mps 703 mmHg 26%
    19:00 +9°C° 0 mm 2 mps 703 mmHg 30%
    20:00 +8°C° 0 mm 2 mps 704 mmHg 32%
    21:00 +7°C° 0 mm 2 mps 704 mmHg 35%
    22:00 +7°C° 0 mm 1 mps 705 mmHg 37%
    23:00 +6°C° 0 mm 1 mps 705 mmHg 39%
    Show more